COSMOS 2142

导读

COSMOS 2142是由独联体(CIS)于1991年4月16日09:00发射的卫星,隶属于苏联/俄罗斯“宇宙”(COSMOS)系列卫星,该系列多承担军事科研与空间技术试验任务。作为冷战末期发射的航天器,它延续了该系列常态化空间探测传统,完成设计寿命内任务后已再入大气层陨落,是独联体早期航天活动的代表性产物之一。

基本信息
目录编号:
21230
目录名称:
COSMOS 2142
国际标识:
1991-029A
轨道中心:
EARTH
卫星名称:
COSMOS 2142
卫星全名:
--
卫星状态:
在轨 (已飞行12886 天)
发射日期:
1991-04-16 UTC
国别 :
俄罗斯(独联体) (CIS)
星等 :
--
轨道信息
数据来源 国际轨道数据 AOE轨道数据
星历时间 2026-07-27T10:27:13+0800
19小时前
查看轨道信息
2026-07-28T02:00:00+0800
3小时前
查看轨道信息
半长轴 7365.597km 7365.602km
偏心率 0.0039431 0.0039672
轨道倾角 82.954° 82.954°
近地点辐角 97.004° 95.082°
升交点赤经 209.407° 208.927°
平近点角 337.601° 300.378°
近地点 958.416km 958.244km
远地点 1016.504km 1016.686km
周期 104.851分钟 104.851分钟
每日圈数 13.733806 13.733792
详细信息
使用方式:
暂无
2D轨道图
3D轨道图
轨道高度分析图
轨道倾角分析图
轨道综合分析图
查看轨道综合分析图